TimeEST,TemperatureF,Dew PointF,Humidity,Sea Level PressureIn,VisibilityMPH,Wind Direction,Wind SpeedMPH,Gust SpeedMPH,PrecipitationIn,Events,Conditions,WindDirDegrees,DateUTC
12:53 AM,57.9,54.0,87,29.92,10.0,Calm,Calm,-,N/A,,Overcast,0,2011-11-09 05:53:00
1:53 AM,59.0,54.0,83,29.89,10.0,ESE,5.8,-,N/A,,Overcast,120,2011-11-09 06:53:00
2:53 AM,63.0,51.1,65,29.87,10.0,South,12.7,20.7,N/A,,Scattered Clouds,170,2011-11-09 07:53:00
3:53 AM,61.0,53.1,75,29.85,10.0,South,13.8,19.6,0.00,Rain,Light Rain,180,2011-11-09 08:53:00
4:53 AM,57.9,53.1,84,29.83,10.0,SSE,9.2,-,0.02,Rain,Light Rain,160,2011-11-09 09:53:00
5:53 AM,57.9,55.0,90,29.79,9.0,SE,12.7,-,0.03,Rain,Light Rain,140,2011-11-09 10:53:00
6:53 AM,57.0,54.0,89,29.76,10.0,SSE,13.8,20.7,0.00,,Overcast,150,2011-11-09 11:53:00
7:53 AM,57.0,53.1,87,29.71,9.0,SE,15.0,23.0,0.01,Rain,Light Rain,140,2011-11-09 12:53:00
8:21 AM,57.2,53.6,88,29.70,9.0,SE,15.0,-,0.01,Rain,Light Rain,140,2011-11-09 13:21:00
8:43 AM,55.4,53.6,94,29.69,2.5,SSE,18.4,24.2,0.11,Rain,Rain,150,2011-11-09 13:43:00
8:46 AM,55.4,53.6,94,29.69,1.8,SSE,17.3,24.2,0.12,Rain,Heavy Rain,150,2011-11-09 13:46:00
9:05 AM,55.4,53.6,94,29.68,5.0,SSE,17.3,-,0.00,Rain,Light Rain,150,2011-11-09 14:05:00
9:21 AM,55.4,53.6,94,29.68,3.0,SSE,16.1,-,0.01,Rain,Light Rain,160,2011-11-09 14:21:00
9:53 AM,57.9,55.0,90,29.66,5.0,South,19.6,27.6,0.02,Rain,Light Rain,170,2011-11-09 14:53:00
10:53 AM,60.1,55.9,86,29.64,10.0,South,21.9,31.1,0.00,,Overcast,180,2011-11-09 15:53:00
11:05 AM,62.6,57.2,82,29.64,10.0,South,25.3,33.4,N/A,,Mostly Cloudy,190,2011-11-09 16:05:00
11:25 AM,62.6,55.4,77,29.63,10.0,South,21.9,31.1,N/A,,Mostly Cloudy,190,2011-11-09 16:25:00
11:49 AM,62.6,55.4,77,29.61,10.0,South,20.7,26.5,N/A,,Overcast,180,2011-11-09 16:49:00
11:53 AM,62.1,55.0,78,29.60,10.0,South,21.9,31.1,N/A,,Overcast,180,2011-11-09 16:53:00
12:13 PM,60.8,51.8,72,29.62,10.0,SW,26.5,34.5,0.00,,Mostly Cloudy,220,2011-11-09 17:13:00
12:53 PM,60.1,48.0,64,29.62,10.0,SW,32.2,43.7,0.00,,Scattered Clouds,230,2011-11-09 17:53:00
1:53 PM,55.0,45.0,69,29.64,10.0,SW,34.5,54.1,N/A,,Mostly Cloudy,220,2011-11-09 18:53:00
2:21 PM,51.8,42.8,71,29.65,10.0,SW,34.5,44.9,N/A,,Overcast,220,2011-11-09 19:21:00
2:53 PM,48.9,41.0,74,29.68,10.0,SW,25.3,43.7,N/A,,Overcast,220,2011-11-09 19:53:00
3:53 PM,46.0,37.0,71,29.71,10.0,SW,28.8,41.4,N/A,,Overcast,220,2011-11-09 20:53:00
4:53 PM,43.0,37.0,80,29.75,10.0,SW,23.0,34.5,0.00,,Overcast,230,2011-11-09 21:53:00
5:53 PM,39.9,35.1,83,29.79,10.0,WSW,23.0,34.5,0.00,,Overcast,240,2011-11-09 22:53:00
6:53 PM,39.9,35.1,83,29.84,10.0,WSW,20.7,35.7,0.00,Rain,Light Rain,250,2011-11-09 23:53:00
7:22 PM,39.2,35.6,87,29.86,10.0,West,23.0,31.1,0.01,Rain,Light Rain,260,2011-11-10 00:22:00
7:53 PM,39.0,36.0,89,29.88,10.0,West,19.6,27.6,0.01,Rain,Light Rain,260,2011-11-10 00:53:00
8:12 PM,39.2,35.6,87,29.88,10.0,West,18.4,26.5,0.00,,Overcast,260,2011-11-10 01:12:00
8:53 PM,39.9,36.0,86,29.91,10.0,West,17.3,24.2,0.00,,Overcast,260,2011-11-10 01:53:00
9:53 PM,39.9,36.0,86,29.94,-9999.0,West,18.4,25.3,0.00,,Overcast,270,2011-11-10 02:53:00
10:53 PM,39.9,36.0,86,29.96,10.0,West,15.0,-,0.00,Rain,Light Rain,260,2011-11-10 03:53:00
11:53 PM,39.9,36.0,86,29.97,10.0,West,13.8,-,0.01,Rain,Light Rain,260,2011-11-10 04:53:00